FDX1731 KIND-KCLE

Flight info

Callsign FDX1731
Flight time 0h 43m
Altitude 23000
Route MAREO5 MAREO TALKN ROKNN4
Aircraft A306/H-SDE3FGHIRWY/LB1

Departure

Time 2026-05-05 23:22
Airport Indianapolis International Airport (KIND)

Arrival

Time 2026-05-06 00:05
Airport Cleveland Hopkins International Airport (KCLE)
Time Latitude Longitude Altitude Speed Heading
2026-05-05 22:49 39.71073 -86.28765 797 ft 0 kts 315°
2026-05-05 23:09 39.71067 -86.28757 797 ft 2 kts 315°
2026-05-05 23:09 39.71061 -86.28748 798 ft 2 kts 312°
2026-05-05 23:09 39.71053 -86.28732 798 ft 2 kts 293°
2026-05-05 23:09 39.71048 -86.28713 798 ft 2 kts 277°
2026-05-05 23:10 39.71048 -86.28694 798 ft 2 kts 261°
2026-05-05 23:10 39.71052 -86.28676 798 ft 2 kts 245°
2026-05-05 23:10 39.71060 -86.28659 798 ft 2 kts 230°
2026-05-05 23:10 39.71064 -86.28653 797 ft 1 kts 224°
2026-05-05 23:11 39.71065 -86.28652 797 ft 0 kts 224°
2026-05-05 23:12 39.71064 -86.28653 797 ft 1 kts 224°
2026-05-05 23:13 39.71034 -86.28691 798 ft 10 kts 224°
2026-05-05 23:13 39.70964 -86.28780 798 ft 16 kts 225°
2026-05-05 23:13 39.70874 -86.28895 799 ft 19 kts 224°
2026-05-05 23:13 39.70866 -86.29021 799 ft 17 kts 309°
2026-05-05 23:14 39.70883 -86.29146 797 ft 17 kts 227°
2026-05-05 23:14 39.70786 -86.29273 797 ft 22 kts 225°
2026-05-05 23:14 39.70647 -86.29442 797 ft 30 kts 212°
2026-05-05 23:14 39.70455 -86.29595 798 ft 34 kts 224°
2026-05-05 23:15 39.70277 -86.29823 798 ft 37 kts 226°
2026-05-05 23:15 39.70095 -86.30051 797 ft 29 kts 223°
2026-05-05 23:15 39.69962 -86.30221 796 ft 17 kts 224°
2026-05-05 23:15 39.69954 -86.30328 793 ft 5 kts 307°
2026-05-05 23:16 39.69957 -86.30331 793 ft 0 kts 308°
2026-05-05 23:17 39.69962 -86.30340 793 ft 3 kts 309°
2026-05-05 23:17 39.69997 -86.30390 792 ft 11 kts 314°
2026-05-05 23:17 39.70051 -86.30414 791 ft 8 kts 55°
2026-05-05 23:18 39.70065 -86.30393 792 ft 0 kts 44°
2026-05-05 23:21 39.70067 -86.30390 792 ft 1 kts 43°
2026-05-05 23:21 39.70101 -86.30347 792 ft 12 kts 45°
2026-05-05 23:21 39.70201 -86.30218 794 ft 28 kts 45°
2026-05-05 23:21 39.70445 -86.29909 795 ft 80 kts 44°
2026-05-05 23:22 39.71047 -86.29139 807 ft 156 kts 44°
2026-05-05 23:22 39.71848 -86.28136 1470 ft 164 kts 43°
2026-05-05 23:22 39.72716 -86.27094 2147 ft 178 kts 39°
2026-05-05 23:22 39.73646 -86.25878 2678 ft 205 kts 43°
2026-05-05 23:23 39.74692 -86.24486 3384 ft 229 kts 43°
2026-05-05 23:23 39.75855 -86.22965 4165 ft 250 kts 43°
2026-05-05 23:23 39.77116 -86.21314 4720 ft 266 kts 45°
2026-05-05 23:23 39.78412 -86.19530 4999 ft 275 kts 44°
2026-05-05 23:24 39.79723 -86.17715 5066 ft 275 kts 50°
2026-05-05 23:24 39.80451 -86.15389 5367 ft 286 kts 81°
2026-05-05 23:24 39.80656 -86.12830 6579 ft 290 kts 86°
2026-05-05 23:24 39.80812 -86.10232 7727 ft 298 kts 86°
2026-05-05 23:25 39.80997 -86.07525 8771 ft 307 kts 87°
2026-05-05 23:25 39.81233 -86.04785 9815 ft 314 kts 87°
2026-05-05 23:25 39.81471 -86.01932 10555 ft 332 kts 86°
2026-05-05 23:25 39.81745 -85.98801 10990 ft 359 kts 86°
2026-05-05 23:26 39.82031 -85.95495 11466 ft 383 kts 87°
2026-05-05 23:26 39.82335 -85.91943 11941 ft 406 kts 86°
2026-05-05 23:26 39.82666 -85.88248 12578 ft 420 kts 85°
2026-05-05 23:26 39.83011 -85.84477 13221 ft 431 kts 85°
2026-05-05 23:27 39.83358 -85.80588 14188 ft 437 kts 83°
2026-05-05 23:27 39.83708 -85.76660 15072 ft 444 kts 85°
2026-05-05 23:27 39.84081 -85.72650 16030 ft 449 kts 84°
2026-05-05 23:27 39.84463 -85.68630 16885 ft 455 kts 84°
2026-05-05 23:28 39.84819 -85.64503 17661 ft 462 kts 85°
2026-05-05 23:28 39.85183 -85.60413 18558 ft 465 kts 84°
2026-05-05 23:28 39.85569 -85.56207 19264 ft 473 kts 84°
2026-05-05 23:28 39.85946 -85.51975 20096 ft 477 kts 84°
2026-05-05 23:29 39.86328 -85.47688 20829 ft 483 kts 84°
2026-05-05 23:29 39.86709 -85.43363 21752 ft 483 kts 83°
2026-05-05 23:29 39.87094 -85.38989 22367 ft 488 kts 84°
2026-05-05 23:29 39.87468 -85.34726 22724 ft 493 kts 85°
2026-05-05 23:30 39.87863 -85.30191 22841 ft 486 kts 85°
2026-05-05 23:30 39.88113 -85.27329 22846 ft 475 kts 84°
2026-05-05 23:30 39.88892 -85.21837 22841 ft 453 kts 76°
2026-05-05 23:30 39.89811 -85.17862 22864 ft 460 kts 72°
2026-05-05 23:31 39.90823 -85.13879 22877 ft 465 kts 71°
2026-05-05 23:31 39.91813 -85.09899 22842 ft 462 kts 72°
2026-05-05 23:31 39.92780 -85.05900 22825 ft 463 kts 72°
2026-05-05 23:31 39.93719 -85.01914 22857 ft 465 kts 73°
2026-05-05 23:32 39.94664 -84.97861 22857 ft 462 kts 73°
2026-05-05 23:32 39.95591 -84.93911 22850 ft 464 kts 73°
2026-05-05 23:32 39.96540 -84.89876 22860 ft 468 kts 73°
2026-05-05 23:32 39.97477 -84.85828 22852 ft 464 kts 73°
2026-05-05 23:33 39.98416 -84.81812 22853 ft 462 kts 73°
2026-05-05 23:33 39.99366 -84.77787 22840 ft 464 kts 72°
2026-05-05 23:33 40.00275 -84.73811 22843 ft 464 kts 73°
2026-05-05 23:33 40.01209 -84.69748 22846 ft 463 kts 72°
2026-05-05 23:34 40.02135 -84.65822 22846 ft 455 kts 72°
2026-05-05 23:34 40.03061 -84.61850 22847 ft 463 kts 72°
2026-05-05 23:34 40.03992 -84.57811 22869 ft 467 kts 72°
2026-05-05 23:34 40.04920 -84.53778 22847 ft 459 kts 72°
2026-05-05 23:35 40.05828 -84.49833 22877 ft 459 kts 72°
2026-05-05 23:35 40.06760 -84.45796 22875 ft 468 kts 72°
2026-05-05 23:35 40.07698 -84.41746 22870 ft 464 kts 73°
2026-05-05 23:35 40.08620 -84.37743 22891 ft 463 kts 72°
2026-05-05 23:36 40.09535 -84.33709 22894 ft 463 kts 72°
2026-05-05 23:36 40.10362 -84.29590 22876 ft 465 kts 76°
2026-05-05 23:36 40.10835 -84.25584 22848 ft 464 kts 84°
2026-05-05 23:36 40.11092 -84.21684 22828 ft 461 kts 86°
2026-05-05 23:37 40.11362 -84.17637 22837 ft 461 kts 84°
2026-05-05 23:37 40.11753 -84.13507 22852 ft 466 kts 83°
2026-05-05 23:37 40.12181 -84.09314 22837 ft 464 kts 82°
2026-05-05 23:37 40.12461 -84.06538 22839 ft 463 kts 83°
2026-05-05 23:38 40.13010 -84.00933 22851 ft 467 kts 83°
2026-05-05 23:38 40.13414 -83.96657 22828 ft 463 kts 83°
2026-05-05 23:38 40.13783 -83.92770 22831 ft 463 kts 82°
2026-05-05 23:38 40.14185 -83.88544 22818 ft 469 kts 83°
2026-05-05 23:39 40.14579 -83.84347 22805 ft 463 kts 83°
2026-05-05 23:39 40.14965 -83.80218 22834 ft 463 kts 83°
2026-05-05 23:39 40.15349 -83.76036 22820 ft 466 kts 83°
2026-05-05 23:39 40.15729 -83.71883 22810 ft 462 kts 83°
2026-05-05 23:40 40.16116 -83.67688 22786 ft 465 kts 83°
2026-05-05 23:40 40.16489 -83.63653 22498 ft 470 kts 83°
2026-05-05 23:40 40.16877 -83.59415 22179 ft 463 kts 83°
2026-05-05 23:40 40.17253 -83.55327 21868 ft 455 kts 83°
2026-05-05 23:41 40.17625 -83.51222 21541 ft 456 kts 83°
2026-05-05 23:41 40.18023 -83.47084 21235 ft 457 kts 79°
2026-05-05 23:41 40.19106 -83.43266 20889 ft 446 kts 56°
2026-05-05 23:41 40.21054 -83.40233 20581 ft 433 kts 38°
2026-05-05 23:42 40.23361 -83.37701 20279 ft 436 kts 33°
2026-05-05 23:42 40.25696 -83.35178 19970 ft 434 kts 35°
2026-05-05 23:42 40.27854 -83.32657 19654 ft 431 kts 38°
2026-05-05 23:42 40.30048 -83.29957 19327 ft 432 kts 39°
2026-05-05 23:43 40.32219 -83.27235 19006 ft 431 kts 39°
2026-05-05 23:43 40.34328 -83.24569 18853 ft 422 kts 39°
2026-05-05 23:43 40.36447 -83.21905 18862 ft 428 kts 39°
2026-05-05 23:43 40.38601 -83.19217 18865 ft 431 kts 40°
2026-05-05 23:44 40.40767 -83.16518 18862 ft 422 kts 40°
2026-05-05 23:44 40.42894 -83.13837 18848 ft 432 kts 40°
2026-05-05 23:44 40.45065 -83.11091 18841 ft 430 kts 40°
2026-05-05 23:44 40.47212 -83.08378 18537 ft 427 kts 40°
2026-05-05 23:45 40.49352 -83.05678 18268 ft 425 kts 41°
2026-05-05 23:45 40.51443 -83.03011 17972 ft 423 kts 41°
2026-05-05 23:45 40.53556 -83.00352 17680 ft 421 kts 40°
2026-05-05 23:45 40.55689 -82.97700 17363 ft 421 kts 41°
2026-05-05 23:46 40.57708 -82.95160 17125 ft 419 kts 39°
2026-05-05 23:46 40.59817 -82.92537 16803 ft 418 kts 40°
2026-05-05 23:46 40.61944 -82.89899 16489 ft 418 kts 41°
2026-05-05 23:46 40.64029 -82.87284 16158 ft 414 kts 40°
2026-05-05 23:47 40.66054 -82.84695 15829 ft 408 kts 40°
2026-05-05 23:47 40.68083 -82.82093 15551 ft 405 kts 43°
2026-05-05 23:47 40.70130 -82.79518 15244 ft 404 kts 42°
2026-05-05 23:47 40.72178 -82.76979 15023 ft 404 kts 42°
2026-05-05 23:48 40.74215 -82.74440 14705 ft 404 kts 42°
2026-05-05 23:48 40.76220 -82.71858 14463 ft 404 kts 43°
2026-05-05 23:48 40.78247 -82.69312 14184 ft 404 kts 41°
2026-05-05 23:48 40.80282 -82.66750 13884 ft 404 kts 40°
2026-05-05 23:49 40.82306 -82.64202 13606 ft 402 kts 41°
2026-05-05 23:49 40.84312 -82.61665 13316 ft 399 kts 41°
2026-05-05 23:49 40.86282 -82.59171 12946 ft 396 kts 41°
2026-05-05 23:49 40.88278 -82.56645 12531 ft 395 kts 41°
2026-05-05 23:50 40.90261 -82.54113 12047 ft 393 kts 42°
2026-05-05 23:50 40.92182 -82.51660 11572 ft 386 kts 42°
2026-05-05 23:50 40.94093 -82.49215 11092 ft 380 kts 42°
2026-05-05 23:50 40.95984 -82.46779 10604 ft 374 kts 43°
2026-05-05 23:51 40.97842 -82.44386 10100 ft 370 kts 42°
2026-05-05 23:51 40.99631 -82.42091 9591 ft 351 kts 42°
2026-05-05 23:51 41.00773 -82.40628 9260 ft 340 kts 42°
2026-05-05 23:51 41.02980 -82.37834 8745 ft 319 kts 42°
2026-05-05 23:52 41.04577 -82.35829 8350 ft 319 kts 41°
2026-05-05 23:52 41.06234 -82.33871 7980 ft 317 kts 44°
2026-05-05 23:52 41.07773 -82.31943 7523 ft 314 kts 43°
2026-05-05 23:52 41.09333 -82.30016 7292 ft 306 kts 42°
2026-05-05 23:53 41.10981 -82.28114 6991 ft 300 kts 40°
2026-05-05 23:53 41.12558 -82.26363 6713 ft 293 kts 41°
2026-05-05 23:53 41.14059 -82.24577 6423 ft 291 kts 39°
2026-05-05 23:53 41.15618 -82.22813 6089 ft 289 kts 40°
2026-05-05 23:54 41.17114 -82.21083 5992 ft 276 kts 38°
2026-05-05 23:54 41.18546 -82.19452 6007 ft 266 kts 39°
2026-05-05 23:54 41.19989 -82.17808 6057 ft 285 kts 39°
2026-05-05 23:54 41.21525 -82.15993 6022 ft 297 kts 43°
2026-05-05 23:55 41.22972 -82.14039 6007 ft 292 kts 47°
2026-05-05 23:55 41.24342 -82.12077 5854 ft 283 kts 47°
2026-05-05 23:55 41.25620 -82.10127 5576 ft 278 kts 49°
2026-05-05 23:55 41.26807 -82.08157 5286 ft 273 kts 51°
2026-05-05 23:56 41.27991 -82.06228 4993 ft 268 kts 50°
2026-05-05 23:56 41.29187 -82.04336 4529 ft 263 kts 49°
2026-05-05 23:56 41.30322 -82.02589 4235 ft 231 kts 48°
2026-05-05 23:56 41.31314 -82.01068 3903 ft 207 kts 47°
2026-05-05 23:57 41.32176 -81.99691 3640 ft 186 kts 49°
2026-05-05 23:57 41.32983 -81.98401 3133 ft 178 kts 46°
2026-05-05 23:57 41.33772 -81.97165 2548 ft 175 kts 46°
2026-05-05 23:57 41.34533 -81.95994 2302 ft 153 kts 46°
2026-05-05 23:58 41.35187 -81.94946 2312 ft 155 kts 47°
2026-05-05 23:58 41.35795 -81.93661 2319 ft 166 kts 54°
2026-05-05 23:58 41.36497 -81.92360 2329 ft 183 kts 49°
2026-05-05 23:58 41.37352 -81.91025 2317 ft 197 kts 49°
2026-05-05 23:59 41.37823 -81.89232 2230 ft 221 kts 85°
2026-05-05 23:59 41.37503 -81.87167 2861 ft 236 kts 114°
2026-05-05 23:59 41.36438 -81.85476 2999 ft 240 kts 142°
2026-05-05 23:59 41.35420 -81.84531 3000 ft 232 kts 146°
2026-05-06 00:00 41.34187 -81.83470 2991 ft 222 kts 146°
2026-05-06 00:00 41.32903 -81.82357 2986 ft 223 kts 147°
2026-05-06 00:00 41.31591 -81.81366 2991 ft 226 kts 160°
2026-05-06 00:00 41.30090 -81.81080 2999 ft 219 kts 184°
2026-05-06 00:01 41.28667 -81.81724 3009 ft 218 kts 214°
2026-05-06 00:01 41.27502 -81.82949 2997 ft 220 kts 235°
2026-05-06 00:01 41.26884 -81.84779 3016 ft 209 kts 260°
2026-05-06 00:01 41.26973 -81.86646 3013 ft 204 kts 294°
2026-05-06 00:02 41.27897 -81.88054 3040 ft 207 kts 329°
2026-05-06 00:02 41.29195 -81.88959 2885 ft 220 kts 333°
2026-05-06 00:02 41.30589 -81.89903 2521 ft 229 kts 333°
2026-05-06 00:02 41.32023 -81.90865 2187 ft 229 kts 334°
2026-05-06 00:03 41.33424 -81.91808 2008 ft 220 kts 333°
2026-05-06 00:03 41.34739 -81.92703 1991 ft 205 kts 333°
2026-05-06 00:03 41.36149 -81.92929 2013 ft 215 kts 14°
2026-05-06 00:03 41.37401 -81.91854 1875 ft 219 kts 48°
2026-05-06 00:04 41.38292 -81.90398 1746 ft 187 kts 49°
2026-05-06 00:04 41.38987 -81.89017 1316 ft 177 kts 55°
2026-05-06 00:04 41.39705 -81.87798 906 ft 170 kts 49°
2026-05-06 00:04 41.40431 -81.86656 778 ft 152 kts 48°
2026-05-06 00:05 41.41581 -81.84857 785 ft 60 kts 46°
2026-05-06 00:05 41.41652 -81.84744 785 ft 1 kts 44°